Location: *
(48.8489°N, 2.3218°E)
Time: 14:14:00
(UTC+00:00)

Abrixas rocket - Pass Details

Date: 23 August 2019
Orbit: 364 x 371 km, 48.4° (Epoch: 16 September)

Event Time Altitude Azimuth Distance (km) Brightness Sun altitude
Rises 21:34:13 0° 277° (W) 2,226 6.6 -22.5°
Reaches altitude 10° 21:36:16 10° 275° (W) 1,377 5.4 -22.7°
Enters shadow 21:37:38 24° 271° (W) 833 4.1 -22.8°
